DELTA 1 DEB, 10648

Orbit data source: Space-Track

DELTA 1 DEB, 10648 is space debris in SSO originally from a launch on Thu, 29 Jul 1976 UTC launched from the Air Force Western Test Range (AFWTR). Debris objects in space refer to the collection of defunct objects orbiting the Earth. Examples of debris include non-operational satellites, rocket bodies, and fragments generated from explosions, collisions, or faulty payload assembly.

Loading next visibility...
Identifier
10648, 1976-077J
Orbit
SSO
Country
Flag of USUS
Related business
Manufacturer
Unknown
Mission
Spacecraft
Bus & Motor
Unknown
Mass
Unknown
Launch date (UTC)
1976-07-29 (50 years ago)
Launch vehicle
Unknown
Launch site
Air Force Western Test Range (AFWTR)
Object type
Payload
Rocket body
Debris
Shape & HBR
Unknown shape, 0.1 m
Radar Cross Section
Small (<0.1 m²)

Expand to show TLE details & history
Last TLE update: 8 hours ago

TLE from 8 hours ago
0 DELTA 1 DEB
1 10648U 76077J   26119.04040065  .00000244  00000-0  26651-2 0  9996
2 10648 101.9527 158.1994 0141206  84.9895 306.3338 12.20016597214242
Epoch: 2026-04-29T00:58Z
TLE epoch observation values (Epoch: 2026-04-29T00:58:10.616Z)
Latitude
29.33793°
Longitude
-80.1517°
Altitude
1,530.142 km
Speed
7.133 km/s
True Right ascension
10h 05m 35s
True Declination
29° 12' 20"
Sunlit
Object was in daylight at epoch
Visualization orbit readout
Latitude
Unknown
Longitude
Unknown
Altitude
Unknown
Speed
Unknown
Apparent Right ascension
Unknown
Apparent Declination
Unknown
Sunlit
N/A
Visualization observer readout
Local Sidereal Time
16:43:48
Azimuth
Unknown
Elevation
Unknown
Doppler factor
Unknown
Orbital elements
Apogee altitude
1,702.582 km
Perigee altitude
1,477.551 km
Semi-major axis
7,968.204 km
Eccentricity
0.01412
Inclination
101.9527°
RAAN
158.1994°
Arg. of periapsis
84.9895°
True anomaly
305.01664°
Mean anomaly
306.3338°
Eccentric anomaly
305.67659°
Mean motion
3.05142 °/min
Orbital period
117.98 mins
BSTAR
0.0026651
Loading maneuver chart data...
Computing Atmospheric mass density...
Loading historical data...
Loading historical data...
Loading historical data...
Loading historical data...
Loading historical data...
Loading historical data...
Loading historical data...

Documentation

Showing up to 5 results
|